User: anonymous   Login
Location: Cabo di Oristano
(39.8500°N, 8.4333°E)
Time: 01:04:26
(UTC+00:00)
Language:

Cosmos 1536 Rocket - Orbit

View from above orbital plane
View from above orbital plane
View from above satellite
View from above satellite

Ground track
Ground track

The orbit data is extracted from the following two-line orbital elements,

1 14700U 84013B   23154.47345297  .00000515  00000-0  59103-4 0  9997
2 14700  82.5362 282.2475 0019236 352.9497  76.2308 14.83834217102673
Epoch (UTC): 03 June 2023 11:21:46
Eccentricity: 0.0019236
inclination: 82.5362°
perigee height: 604 km
apogee height: 631 km
right ascension of ascending node: 282.2475°
argument of perigee: 352.9497°
revolutions per day: 14.83834217
mean anomaly at epoch: 76.2308°
orbit number at epoch: 10267

The dashed part of the orbit path shows where the satellite is in the earth's shadow,  

DLR